When you browse on this site, cookies collect data to enhance your experience and personalize the content and advertising you see.
Visit our Privacy Policy to learn more. By continuing to use the site, you agree to this use of cookies and data.
  • In Hungary
  • List of Countries
  • For 7 days
  • Water Temperature
  • Satellite Maps
  • Weather Map
  • News
  • Weather Widgets
  • user-avatar
    Login

    Hourly Weather Nizhnedonskoy

    Today, 17 November, Saturday

    Time Temperature Precipitation Wind Pressure Humidity
    00:00 -4°C° 0.1 mm 8 mps 772 mmHg 86%
    01:00 -3°C° 0.4 mm 7 mps 772 mmHg 87%
    02:00 -3°C° 0.4 mm 7 mps 772 mmHg 88%
    03:00 -3°C° 0.4 mm 7 mps 772 mmHg 89%
    04:00 -3°C° 0.3 mm 7 mps 772 mmHg 89%
    05:00 -3°C° 0.3 mm 6 mps 772 mmHg 88%
    06:00 -3°C° 0.3 mm 6 mps 772 mmHg 88%
    07:00 -3°C° 0.3 mm 6 mps 772 mmHg 89%
    08:00 -3°C° 0.3 mm 6 mps 772 mmHg 90%
    09:00 -3°C° 0.3 mm 6 mps 773 mmHg 90%
    10:00 -3°C° 0.2 mm 6 mps 772 mmHg 91%
    11:00 -3°C° 0.2 mm 6 mps 772 mmHg 92%
    12:00 -3°C° 0.2 mm 6 mps 772 mmHg 92%
    13:00 -2°C° 0.1 mm 5 mps 772 mmHg 92%
    14:00 -2°C° 0.1 mm 5 mps 772 mmHg 92%
    15:00 -2°C° 0.1 mm 5 mps 772 mmHg 92%
    16:00 -2°C° 0 mm 4 mps 772 mmHg 91%
    17:00 -2°C° 0 mm 4 mps 772 mmHg 90%
    18:00 -2°C° 0 mm 3 mps 772 mmHg 89%
    19:00 -2°C° 0 mm 3 mps 771 mmHg 88%
    20:00 -2°C° 0 mm 3 mps 771 mmHg 87%
    21:00 -2°C° 0 mm 3 mps 771 mmHg 86%
    22:00 -2°C° 0 mm 2 mps 771 mmHg 86%
    23:00 -2°C° 0 mm 2 mps 770 mmHg 86%

    Tomorrow, 18 November, Sunday

    Time Temperature Precipitation Wind Pressure Humidity
    00:00 -3°C° 0 mm 2 mps 770 mmHg 85%
    01:00 -3°C° 0 mm 2 mps 770 mmHg 85%
    02:00 -3°C° 0 mm 2 mps 769 mmHg 85%
    03:00 -3°C° 0 mm 2 mps 769 mmHg 84%
    04:00 -3°C° 0 mm 2 mps 769 mmHg 84%
    05:00 -3°C° 0 mm 2 mps 768 mmHg 85%
    06:00 -3°C° 0 mm 2 mps 768 mmHg 85%
    07:00 -3°C° 0 mm 2 mps 767 mmHg 85%
    08:00 -2°C° 0 mm 2 mps 767 mmHg 85%
    09:00 -2°C° 0 mm 2 mps 767 mmHg 85%
    10:00 0°C° 0 mm 1 mps 767 mmHg 88%
    11:00 +1°C° 0 mm 1 mps 766 mmHg 90%
    12:00 +2°C° 0 mm 1 mps 766 mmHg 92%
    13:00 +2°C° 0.1 mm 1 mps 766 mmHg 93%
    14:00 +2°C° 0.1 mm 1 mps 765 mmHg 95%
    15:00 +2°C° 0.1 mm 1 mps 765 mmHg 96%
    16:00 +1°C° 0.1 mm 1 mps 765 mmHg 95%
    17:00 +1°C° 0.1 mm 1 mps 765 mmHg 95%
    18:00 +1°C° 0.1 mm 1 mps 765 mmHg 94%
    19:00 +1°C° 0.1 mm 1 mps 765 mmHg 95%
    20:00 +1°C° 0.1 mm 1 mps 765 mmHg 95%
    21:00 +1°C° 0.1 mm 1 mps 765 mmHg 96%
    22:00 +1°C° 0 mm 1 mps 765 mmHg 96%
    23:00 +1°C° 0 mm 1 mps 765 mmHg 96%

    Day after tomorrow, 19 November, Monday

    Time Temperature Precipitation Wind Pressure Humidity
    00:00 +1°C° 0 mm 1 mps 765 mmHg 97%
    01:00 +1°C° 0 mm 1 mps 765 mmHg 97%
    02:00 +1°C° 0 mm 1 mps 765 mmHg 97%
    03:00 +1°C° 0 mm 1 mps 765 mmHg 97%
    04:00 +1°C° 0 mm 1 mps 765 mmHg 97%
    05:00 +2°C° 0 mm 1 mps 765 mmHg 97%
    06:00 +2°C° 0 mm 1 mps 765 mmHg 97%
    07:00 +2°C° 0 mm 1 mps 765 mmHg 98%
    08:00 +2°C° 0 mm 1 mps 765 mmHg 99%
    09:00 +1°C° 0 mm 2 mps 766 mmHg 99%
    10:00 +1°C° 0 mm 2 mps 766 mmHg 99%
    11:00 +2°C° 0 mm 2 mps 766 mmHg 99%
    12:00 +2°C° 0 mm 2 mps 766 mmHg 99%
    13:00 +1°C° 0 mm 3 mps 766 mmHg 99%
    14:00 +1°C° 0 mm 3 mps 765 mmHg 99%
    15:00 0°C° 0 mm 4 mps 765 mmHg 99%
    16:00 0°C° 0 mm 4 mps 765 mmHg 99%
    17:00 0°C° 0 mm 4 mps 765 mmHg 99%
    18:00 0°C° 0 mm 4 mps 765 mmHg 99%
    19:00 0°C° 0 mm 5 mps 765 mmHg 98%
    20:00 +1°C° 0 mm 5 mps 765 mmHg 98%
    21:00 +1°C° 0 mm 5 mps 765 mmHg 97%
    22:00 +1°C° 0 mm 5 mps 765 mmHg 96%
    23:00 +1°C° 0 mm 5 mps 765 mmHg 94%

    20 November, Tuesday

    Time Temperature Precipitation Wind Pressure Humidity
    00:00 +1°C° 0 mm 6 mps 765 mmHg 92%
    01:00 +1°C° 0 mm 6 mps 765 mmHg 92%
    02:00 +1°C° 0 mm 6 mps 765 mmHg 92%
    03:00 +1°C° 0 mm 6 mps 765 mmHg 92%
    04:00 +1°C° 0.2 mm 6 mps 765 mmHg 92%
    05:00 +2°C° 0.2 mm 6 mps 765 mmHg 92%
    06:00 +2°C° 0.2 mm 7 mps 765 mmHg 92%
    07:00 +2°C° 0.4 mm 7 mps 765 mmHg 92%
    08:00 +2°C° 0.4 mm 7 mps 765 mmHg 92%
    09:00 +2°C° 0.4 mm 7 mps 765 mmHg 92%
    10:00 +2°C° 0.9 mm 7 mps 765 mmHg 93%
    11:00 +3°C° 0.9 mm 7 mps 764 mmHg 93%
    12:00 +3°C° 0.9 mm 6 mps 764 mmHg 93%
    13:00 +3°C° 0.4 mm 6 mps 764 mmHg 93%
    14:00 +5°C° 0.4 mm 5 mps 764 mmHg 94%
    15:00 +5°C° 0.4 mm 5 mps 764 mmHg 94%
    16:00 +5°C° 0.1 mm 5 mps 764 mmHg 94%
    17:00 +6°C° 0.1 mm 5 mps 764 mmHg 93%
    18:00 +6°C° 0.1 mm 4 mps 764 mmHg 93%
    19:00 +6°C° 0 mm 4 mps 764 mmHg 93%
    20:00 +6°C° 0 mm 4 mps 764 mmHg 93%
    21:00 +7°C° 0 mm 3 mps 764 mmHg 93%
    22:00 +7°C° 0 mm 3 mps 763 mmHg 93%
    23:00 +7°C° 0 mm 3 mps 763 mmHg 94%

    21 November, Wednesday

    Time Temperature Precipitation Wind Pressure Humidity
    00:00 +7°C° 0 mm 2 mps 763 mmHg 94%
    01:00 +6°C° 0 mm 2 mps 763 mmHg 94%
    02:00 +6°C° 0 mm 2 mps 763 mmHg 95%
    03:00 +6°C° 0 mm 2 mps 763 mmHg 95%
    04:00 +7°C° 0 mm 1 mps 763 mmHg 95%
    05:00 +7°C° 0 mm 1 mps 763 mmHg 94%
    06:00 +7°C° 0 mm 1 mps 763 mmHg 94%
    07:00 +7°C° 0 mm 1 mps 763 mmHg 94%
    08:00 +8°C° 0 mm 1 mps 763 mmHg 93%
    09:00 +7°C° 0 mm 2 mps 763 mmHg 93%
    10:00 +8°C° 0 mm 2 mps 763 mmHg 89%
    11:00 +9°C° 0 mm 2 mps 762 mmHg 85%
    12:00 +10°C° 0 mm 2 mps 762 mmHg 80%
    13:00 +12°C° 0 mm 2 mps 762 mmHg 80%
    14:00 +12°C° 0 mm 2 mps 761 mmHg 79%
    15:00 +12°C° 0 mm 2 mps 761 mmHg 78%
    16:00 +10°C° 0 mm 2 mps 761 mmHg 81%
    17:00 +10°C° 0 mm 3 mps 761 mmHg 84%
    18:00 +9°C° 0 mm 3 mps 761 mmHg 87%
    19:00 +9°C° 0 mm 3 mps 761 mmHg 88%
    20:00 +9°C° 0 mm 3 mps 761 mmHg 88%
    21:00 +9°C° 0 mm 3 mps 760 mmHg 89%
    22:00 +9°C° 0.2 mm 2 mps 760 mmHg 90%
    23:00 +9°C° 0.2 mm 2 mps 760 mmHg 92%

    22 November, Thursday

    Time Temperature Precipitation Wind Pressure Humidity
    00:00 +9°C° 0.2 mm 2 mps 760 mmHg 93%
    01:00 +9°C° 0.1 mm 2 mps 759 mmHg 93%
    02:00 +9°C° 0.1 mm 2 mps 759 mmHg 93%
    03:00 +9°C° 0.1 mm 2 mps 759 mmHg 94%
    04:00 +9°C° 0.1 mm 2 mps 758 mmHg 94%
    05:00 +9°C° 0.1 mm 2 mps 758 mmHg 93%
    06:00 +9°C° 0.1 mm 2 mps 758 mmHg 93%
    07:00 +9°C° 0.1 mm 2 mps 758 mmHg 93%
    08:00 +9°C° 0.1 mm 2 mps 758 mmHg 93%
    09:00 +9°C° 0.1 mm 3 mps 758 mmHg 92%
    10:00 +9°C° 0 mm 3 mps 758 mmHg 90%
    11:00 +10°C° 0 mm 3 mps 758 mmHg 87%
    12:00 +10°C° 0 mm 3 mps 758 mmHg 84%
    13:00 +10°C° 0 mm 3 mps 757 mmHg 84%
    14:00 +11°C° 0 mm 3 mps 757 mmHg 84%
    15:00 +11°C° 0 mm 3 mps 757 mmHg 85%
    16:00 +10°C° 0.1 mm 3 mps 757 mmHg 87%
    17:00 +10°C° 0.1 mm 3 mps 757 mmHg 89%
    18:00 +10°C° 0.1 mm 3 mps 758 mmHg 91%
    19:00 +8°C° 0.6 mm 4 mps 758 mmHg 92%
    20:00 +8°C° 0.6 mm 4 mps 758 mmHg 92%
    21:00 +8°C° 0.6 mm 4 mps 758 mmHg 92%
    22:00 +7°C° 0.8 mm 5 mps 758 mmHg 92%
    23:00 +7°C° 0.8 mm 5 mps 758 mmHg 92%
    Show more